www.pogodaiklimat.ru

Погода и климат >> Архив погоды >> Казахстан >> Ушарал


АРХИВ ПОГОДЫ в Ушарале

Время (UTC), дата Ветер
(напр.,м/с)
 
Видим.   Явления Облачность Т
(С)
Тd
(С)
f
(%)
Тe
(С)
Тes
(С)
Комфортность P
(гПа)
Po
(гПа)
Тmin
(С)
Tmax
(С)
R
(мм)
R24
(мм)
S
(см)
03 10.09 З 2 4000 м слаб. ливневой дождь 10/10 600 м
[Cb cap]
+12.4 +10.5 88 +11 +11 1021.2 975.0
06 10.09 ЮЗ 4 20 км {ливн. осадки} 10/6 600 м
[Cb cap Ac trans Cs]
+15.6 +7.0 57 +15 +16 1020.5 975.2 +12.4 0.0
09 10.09 ЮЗ 4 20 км 10/3 600 м
[Cb cap Ac trans Cs]
+19.6 +6.7 43 +20 +22 1018.6 974.0
12 10.09 З 4 20 км 10/10 600 м
[Cb cap]
+16.6 +3.9 43 +16 +16 1022.7 977.4
15 10.09 Ю 3 4000 м слаб. ливневой дождь 10/10 600 м
[Cb cap]
+11.2 +9.8 91 +9 +9 1025.4 979.3 +20.1
18 10.09 ЮЗ 2 20 км {ливн. осадки} 8/8 600 м
[Cb cap]
+11.8 +8.8 82 +11 +11 1024.5 978.5 +20.1 2
21 10.09 Ю 2 20 км {ливн. осадки} 3/3 600 м
[Cb cap]
+11.0 +7.1 77 +10 +10 1023.9 977.7
00 11.09 Ю 1
{10}
20 км {ливн. осадки} 6/6 600 м
[Cb cap]
+11.2 +6.1 71 +11 +11 1025.1 978.9
03 11.09 ЮЗ 2 20 км 8/8 600 м
[Cb cap]
+15.3 +6.6 56 +15 +16 1025.3 979.8
06 11.09 З 2 20 км 6/4 600 м
[Cb cap Ci fib]
+18.8 +6.5 45 +20 +26 1024.5 979.5 +10.8 3
12 11.09 З 1 20 км 4/4 600 м
[Cb cap]
+21.0 +3.0 30 +22 +23 комфорт 1022.9 978.3
15 11.09 штиль 0 20 км 6/0
[Ci fib]
+13.4 +7.1 66 +13 +13 1025.3 979.5 +22.8
18 11.09 Ю 2 20 км 10/3 600 м
[Sc Ac trans Cs]
+13.3 +6.7 64 +13 +13 1025.7 979.8 +22.8
21 11.09 З 1 20 км 10/4 600 м
[Cb cap Cs]
+12.9 +7.0 67 +13 +13 1025.5 979.6
00 12.09 З 1
{6}
20 км 10/6 600 м
[Cb cap Ci fib]
+12.5 +7.0 69 +13 +13 1026.4 980.3
03 12.09 штиль 0 20 км ясно +14.2 +5.9 57 +14 +20 1027.0 981.2
06 12.09 З 2 20 км 1/1 1000 м
[Cu med, cong]
+20.0 +4.4 36 +21 +31 комфорт 1025.2 980.3 +12.5
09 12.09 СЗ 1 20 км 1/1 1000 м
[Cu med, cong]
+21.6 +2.8 29 +22 +30 комфорт 1023.2 978.7
12 12.09 СЗ 1 20 км ясно +19.0 +3.4 35 +20 +21 1022.9 978.0
15 12.09 штиль 0 20 км ясно +11.8 +4.4 60 +12 +12 1024.8 978.7 +21.6
18 12.09 штиль 0 20 км ясно +9.8 +5.0 72 +9 +9 1024.6 978.3 +21.6
21 12.09 штиль 0 20 км ясно +8.6 +4.1 73 +8 +8 1023.4 976.9
00 13.09 штиль 0
{6}
20 км ясно +6.0 +3.4 83 +5 +5 1023.2 976.3
03 13.09 штиль 0 20 км ясно +10.2 +5.5 73 +10 +15 1022.8 976.5
06 13.09 С 2 20 км ясно +18.2 +3.4 37 +19 +30 1020.7 975.8 +4.2
09 13.09 З 3 20 км ясно +22.2 +2.0 26 +22 +28 комфорт 1018.8 974.5
12 13.09 З 2 20 км ясно +20.4 +0.6 27 +21 +22 комфорт 1019.2 974.7
15 13.09 штиль 0 20 км ясно +13.5 +3.9 52 +13 +13 1021.8 976.1 +23.4
18 13.09 штиль 0 20 км ясно +10.4 +4.2 65 +10 +10 1022.2 976.0 +23.4
21 13.09 штиль 0 20 км ясно +8.9 +4.2 72 +8 +8 1021.7 975.3
00 14.09 штиль 0
{7}
20 км ясно +6.3 +3.5 82 +5 +5 1021.8 975.0
03 14.09 штиль 0 20 км ясно +12.6 +5.4 61 +12 +18 1021.3 975.5
06 14.09 СВ 2 20 км ясно +21.7 +4.0 31 +22 +33 комфорт 1018.9 974.5 +5.5
09 14.09 С 2 20 км ясно +23.2 +5.1 31 +23 +31 комфорт 1017.1 973.1
12 14.09 В 1 20 км ясно +21.2 +4.7 34 +22 +22 комфорт 1017.4 973.1
15 14.09 штиль 0 20 км ясно +14.5 +5.0 53 +14 +14 1019.1 973.7 +23.9
18 14.09 штиль 0 20 км ясно +10.9 +5.1 67 +10 +10 1019.1 973.1 +23.9
21 14.09 штиль 0 20 км ясно +6.8 +3.8 81 +6 +6 1019.5 972.8
00 15.09 штиль 0
{5}
20 км ясно +7.2 +4.3 82 +6 +6 1019.4 972.8
03 15.09 штиль 0 20 км ясно +12.8 +5.9 63 +13 +18 1018.7 973.1
06 15.09 В 1 20 км 1/0
[Ac trans]
+22.0 +8.1 41 +23 +35 комфорт 1016.1 972.0 +6.4
09 15.09 В 1 20 км 4/3 1000 м
[Sc Cs]
+23.8 +7.7 36 +24 +30 комфорт 1014.6 970.8
12 15.09 штиль 0 20 км 10/6 600 м
[Cb cap Cs]
+21.4 +10.1 48 +23 +23 комфорт 1015.5 971.3
15 15.09 штиль 0 20 км 10/10 600 м
[Cb cap]
+18.8 +9.0 53 +19 +19 1016.3 971.7 +24.0
18 15.09 штиль 0 20 км 10/10 600 м
[Cb cap]
+17.4 +8.6 56 +17 +17 1016.6 971.7 +24.0
21 15.09 штиль 0 20 км 10/10 600 м
[Cb cap]
+16.0 +8.2 60 +16 +16 1016.6 971.6
00 16.09 штиль 0
{5}
20 км 10/10 600 м
[Cb cap]
+14.0 +8.5 69 +14 +14 1017.7 972.4
03 16.09 ЮЗ 5 20 км 10/4 1000 м
[Sc Ac trans Cs]
+17.8 +10.0 60 +17 +18 1018.5 973.7
06 16.09 ЮЗ 3 20 км 8/6 600 м
[Cb cap Ac trans]
+20.7 +9.9 50 +23 +25 комфорт 1018.3 973.9 +14.0
18 16.09 штиль 0 20 км 8/4 600 м
[Cb cap Ci fib]
+10.8 +4.7 66 +10 +10 1020.4 974.4 +21.0
00 17.09 штиль 0
{8}
4000 м слаб. ливневой дождь 10/10 600 м
[Cb cap]
+12.4 +8.4 77 +12 +12 1021.7 975.9

 

Местоположение метеостанции Ушарал (Алматинская область, Казахстан): широта 46.17 долгота 80.93 высота над уровнем моря 397 м.

В архиве по умолчанию представлена погода в Ушарале за последнюю неделю. Архивные данные за месяц целиком и за предыдущие месяцы, начиная с января 2011 года, Вы можете получить, выбрав интересующий диапазон дат из раскрывающегося списка и нажав кнопку "Ввод!".


*Определитесь, кто Вы:
робот инопланетянин человек

Внимание! Время в таблицах - всемирное. Для получения местного времени необходимо прибавить поправку, которая равна 5 ч.

Смотрите также архив погоды в соседних городах и на ближайших метеорологических станциях:

Погода в Акжаре 2 (Алматинская область, Казахстан) (46 км)
Погода в Лепси (Алматинская область, Казахстан) (75 км)
Погода в Узынбулаке (Алматинская область, Казахстан) (103 км)
Погода в Сарканде (Алматинская область, Казахстан) (114 км)
Погода в Карабогете (Алматинская область, Казахстан) (116 км)
Погода в Урджаре (Восточно-Казахстанская область, Казахстан) (118 км)
Погода в Жансугурове (Алматинская область, Казахстан) (142 км)
Погода в Бахты (Восточно-Казахстанская область, Казахстан) (149 км)
Погода в Достыке (Алматинская область, Казахстан) (157 км)
Погода в Таченге (Синьцзян-Уйгурский автономный район, Китай) (170 км)

Пояснения к столбцам:

Ветер - указаны скорость ветра в м/с - средняя за 10 мин, порывы в срок и между сроками (в фигурных скобках) и направление, откуда дует ветер: С - северный, СВ - северо-восточный, В - восточный, ЮВ - юго-восточный, Ю - южный, ЮЗ - юго-западный, З - западный, СЗ - северо-западный.
Видимость - горизонтальная дальность видимости в метрах или километрах. При видимости от 1 до 10 км при отсутствии осадков обычно наблюдается дымка, при ухудшении видимости до 1 км и менее - туман. В сухую погоду видимость может ухудшаться дымом, пылью или мглою.
Явления - указаны атмосферные явления, наблюдавшиеся в срок или в последний час перед сроком; фигурными скобками обозначены явления, наблюдавшиеся между сроками (за 1-3 часа до срока); квадратными скобками обозначены град или гололедные отложения с указанием их диаметра в мм.
Облачность - указаны через наклонную черту общая и нижняя облачность в баллах и высота нижней границы облаков в метрах; квадратными скобками обозначены формы облаков: Ci - перистые, Cs - перисто-слоистые, Cc - перисто-кучевые, Ac - высококучевые, As - высокослоистые, Sc - слоисто-кучевые, Ns - слоисто-дождевые, Cu - кучевые, Cb - кучево-дождевые. Подробнее классификацию облаков см. в Атласе облаков (PDF).
T - Температура воздуха - температура, измеренная на высоте 2 м над землей.
Td - Температура точки росы - температура, при понижении до которой содержащийся в воздухе водяной пар достигнет насыщения.
f - Относительная влажность воздуха - влажноcть воздуха, измеренная на высоте 2 м над землей.
Te - Эффективная температура - температура, которую ощущает одетый по сезону человек в тени. Характеристика душности погоды. При расчете учитывается влияние влажности воздуха и скорости ветра на теплоощущения человека.
Tes - Эффективная температура на солнце - температура, которую ощущает человек, с поправкой на солнечный нагрев. Характеристика знойности погоды. Зависит от высоты солнца над горизонтом, облачности и скорости ветра. Ночью, в пасмурную погоду, а также при ветре 12 м/с и более поправка равна нулю.
P - Атмосферное давление - приведенное к уровню моря атмосферное давление.
Po - Атмосферное давление - измеренное на уровне метеостанции атмосферное давление.
Tmin - Минимальная температура - минимум температуры воздуха на высоте 2 м над землей.
Tmax - Максимальная температура - максимум температуры воздуха на высоте 2 м над землей.
R - Количество осадков - Количество выпавших осадков за период времени, мм. При наведении курсора мыши на число - период времени, за который выпало указанное количество осадков.
R24 - Количество осадков - Количество выпавших осадков за 24 часа, мм.
S - Снежный покров - Высота снежного покрова, см. При наведении курсора мыши на число - состояние снежного покрова и степень покрытия местности в баллах.